Time,TemperatureF,DewpointF,PressureIn,WindDirection,WindDirectionDegrees,WindSpeedMPH,WindSpeedGustMPH,Humidity,HourlyPrecipIn,Conditions,Clouds,dailyrainin,SoftwareType,DateUTC
2013-10-09 00:01:00,52.6,46.3,30.24,NNW,333,3.0,4.0,79,0.00,,---,0.00,VWS V14.00,2013-10-09 04:01:00,
2013-10-09 00:02:00,52.6,46.3,30.24,North,356,3.0,4.0,79,0.00,,---,0.00,VWS V14.00,2013-10-09 04:02:00,
2013-10-09 00:03:00,52.6,46.3,30.24,North,6,2.0,4.0,79,0.00,,---,0.00,VWS V14.00,2013-10-09 04:03:00,
2013-10-09 00:09:00,52.4,46.1,30.24,North,354,2.0,3.0,79,0.00,,---,0.00,VWS V14.00,2013-10-09 04:09:00,
2013-10-09 00:14:00,52.6,46.3,30.24,NNE,17,3.0,4.0,79,0.00,,---,0.00,VWS V14.00,2013-10-09 04:14:00,
2013-10-09 00:19:00,52.6,46.3,30.24,NNE,26,3.0,4.0,79,0.00,,---,0.00,VWS V14.00,2013-10-09 04:19:00,
2013-10-09 00:24:00,52.6,46.3,30.24,NNE,32,2.0,3.0,79,0.00,,---,0.00,VWS V14.00,2013-10-09 04:24:00,
2013-10-09 00:29:00,52.5,46.2,30.24,NNW,338,2.0,4.0,79,0.00,,---,0.00,VWS V14.00,2013-10-09 04:29:00,
2013-10-09 00:34:00,52.5,46.2,30.24,North,356,2.0,4.0,79,0.00,,---,0.00,VWS V14.00,2013-10-09 04:34:00,
2013-10-09 00:39:00,52.5,46.2,30.24,North,9,4.0,4.0,79,0.00,,---,0.00,VWS V14.00,2013-10-09 04:39:00,
2013-10-09 00:44:00,52.4,46.1,30.24,North,1,3.0,3.0,79,0.00,,---,0.00,VWS V14.00,2013-10-09 04:44:00,
2013-10-09 00:50:00,52.3,46.0,30.23,NNE,32,4.0,5.0,79,0.00,,---,0.00,VWS V14.00,2013-10-09 04:50:00,
2013-10-09 00:55:00,52.3,46.0,30.24,NNW,333,3.0,4.0,79,0.00,,---,0.00,VWS V14.00,2013-10-09 04:55:00,
2013-10-09 01:00:00,52.3,46.0,30.24,NNW,345,2.0,4.0,79,0.00,,---,0.00,VWS V14.00,2013-10-09 05:00:00,
2013-10-09 01:05:00,52.4,46.1,30.24,NNE,26,3.0,4.0,79,0.00,,---,0.00,VWS V14.00,2013-10-09 05:05:00,
2013-10-09 01:10:00,52.4,45.8,30.24,NNE,25,2.0,4.0,78,0.00,,---,0.00,VWS V14.00,2013-10-09 05:10:00,
2013-10-09 01:15:00,52.5,45.8,30.24,North,1,2.0,3.0,78,0.00,,---,0.00,VWS V14.00,2013-10-09 05:15:00,
2013-10-09 01:20:00,52.5,45.8,30.24,NNE,19,2.0,4.0,78,0.00,,---,0.00,VWS V14.00,2013-10-09 05:20:00,
2013-10-09 01:25:00,52.6,45.6,30.24,NNW,342,2.0,4.0,77,0.00,,---,0.00,VWS V14.00,2013-10-09 05:25:00,
2013-10-09 01:31:00,52.6,45.6,30.24,NNW,345,4.0,4.0,77,0.00,,---,0.00,VWS V14.00,2013-10-09 05:31:00,
2013-10-09 01:36:00,52.6,45.6,30.24,NNW,345,2.0,5.0,77,0.00,,---,0.00,VWS V14.00,2013-10-09 05:36:00,
2013-10-09 01:41:00,52.5,45.5,30.24,North,354,3.0,4.0,77,0.00,,---,0.00,VWS V14.00,2013-10-09 05:41:00,
2013-10-09 01:46:00,52.4,45.8,30.24,North,359,2.0,3.0,78,0.00,,---,0.00,VWS V14.00,2013-10-09 05:46:00,
2013-10-09 01:51:00,52.3,45.7,30.24,North,350,2.0,3.0,78,0.00,,---,0.00,VWS V14.00,2013-10-09 05:51:00,
2013-10-09 01:56:00,52.2,45.6,30.25,North,350,2.0,2.0,78,0.00,,---,0.00,VWS V14.00,2013-10-09 05:56:00,
2013-10-09 02:01:00,52.1,45.5,30.25,NNE,18,1.0,3.0,78,0.00,,---,0.00,VWS V14.00,2013-10-09 06:01:00,
2013-10-09 02:06:00,52.1,45.5,30.25,NNW,347,1.0,2.0,78,0.00,,---,0.00,VWS V14.00,2013-10-09 06:06:00,
2013-10-09 02:12:00,52.0,45.4,30.25,NNW,333,1.0,3.0,78,0.00,,---,0.00,VWS V14.00,2013-10-09 06:12:00,
2013-10-09 02:17:00,51.9,45.3,30.25,North,349,2.0,2.0,78,0.00,,---,0.00,VWS V14.00,2013-10-09 06:17:00,
2013-10-09 02:22:00,51.8,45.2,30.25,NNW,343,1.0,3.0,78,0.00,,---,0.00,VWS V14.00,2013-10-09 06:22:00,
2013-10-09 02:27:00,51.8,45.2,30.25,North,1,1.0,2.0,78,0.00,,---,0.00,VWS V14.00,2013-10-09 06:27:00,
2013-10-09 02:32:00,51.7,45.1,30.25,North,352,2.0,3.0,78,0.00,,---,0.00,VWS V14.00,2013-10-09 06:32:00,
2013-10-09 02:37:00,51.7,45.1,30.25,NNE,15,1.0,3.0,78,0.00,,---,0.00,VWS V14.00,2013-10-09 06:37:00,
2013-10-09 02:42:00,51.7,45.1,30.25,North,6,1.0,4.0,78,0.00,,---,0.00,VWS V14.00,2013-10-09 06:42:00,
2013-10-09 02:47:00,51.6,45.0,30.25,NNW,342,2.0,2.0,78,0.00,,---,0.00,VWS V14.00,2013-10-09 06:47:00,
2013-10-09 02:52:00,51.7,45.1,30.25,North,10,2.0,4.0,78,0.00,,---,0.00,VWS V14.00,2013-10-09 06:52:00,
2013-10-09 02:57:00,51.6,45.0,30.25,NNW,336,2.0,3.0,78,0.00,,---,0.00,VWS V14.00,2013-10-09 06:57:00,
2013-10-09 03:03:00,51.4,45.1,30.25,North,352,1.0,3.0,79,0.00,,---,0.00,VWS V14.00,2013-10-09 07:03:00,
2013-10-09 03:08:00,51.2,44.9,30.25,North,359,0.0,2.0,79,0.00,,---,0.00,VWS V14.00,2013-10-09 07:08:00,
2013-10-09 03:13:00,50.9,45.0,30.25,NNW,343,2.0,2.0,80,0.00,,---,0.00,VWS V14.00,2013-10-09 07:13:00,
2013-10-09 03:18:00,50.8,44.9,30.25,NNW,342,1.0,1.0,80,0.00,,---,0.00,VWS V14.00,2013-10-09 07:18:00,
2013-10-09 03:23:00,50.7,44.8,30.25,NNW,343,1.0,2.0,80,0.00,,---,0.00,VWS V14.00,2013-10-09 07:23:00,
2013-10-09 03:28:00,50.5,44.9,30.25,North,360,1.0,2.0,81,0.00,,---,0.00,VWS V14.00,2013-10-09 07:28:00,
2013-10-09 03:33:00,50.5,44.9,30.25,North,359,1.0,2.0,81,0.00,,---,0.00,VWS V14.00,2013-10-09 07:33:00,
2013-10-09 03:38:00,50.5,44.9,30.25,NNE,16,1.0,2.0,81,0.00,,---,0.00,VWS V14.00,2013-10-09 07:38:00,
2013-10-09 03:43:00,50.4,44.8,30.25,NNE,19,3.0,3.0,81,0.00,,---,0.00,VWS V14.00,2013-10-09 07:43:00,
2013-10-09 03:48:00,50.3,44.7,30.25,NNE,32,3.0,3.0,81,0.00,,---,0.00,VWS V14.00,2013-10-09 07:48:00,
2013-10-09 03:53:00,50.2,44.6,30.25,NNE,18,3.0,3.0,81,0.00,,---,0.00,VWS V14.00,2013-10-09 07:53:00,
2013-10-09 03:58:00,50.1,44.8,30.25,NE,37,4.0,4.0,82,0.00,,---,0.00,VWS V14.00,2013-10-09 07:58:00,
2013-10-09 04:04:00,50.1,44.8,30.25,NNW,338,3.0,4.0,82,0.00,,---,0.00,VWS V14.00,2013-10-09 08:04:00,
2013-10-09 04:09:00,50.0,44.7,30.25,North,359,2.0,3.0,82,0.00,,---,0.00,VWS V14.00,2013-10-09 08:09:00,
2013-10-09 04:14:00,49.9,44.6,30.25,NNE,17,3.0,4.0,82,0.00,,---,0.00,VWS V14.00,2013-10-09 08:14:00,
2013-10-09 04:19:00,49.8,44.5,30.25,NNE,20,0.0,3.0,82,0.00,,---,0.00,VWS V14.00,2013-10-09 08:19:00,
2013-10-09 04:24:00,49.8,44.5,30.25,NNW,348,2.0,4.0,82,0.00,,---,0.00,VWS V14.00,2013-10-09 08:24:00,
2013-10-09 04:29:00,49.8,44.5,30.25,North,9,4.0,4.0,82,0.00,,---,0.00,VWS V14.00,2013-10-09 08:29:00,
2013-10-09 04:34:00,49.7,44.4,30.25,NNW,336,2.0,5.0,82,0.00,,---,0.00,VWS V14.00,2013-10-09 08:34:00,
2013-10-09 04:39:00,49.6,44.7,30.25,NNW,338,5.0,6.0,83,0.00,,---,0.00,VWS V14.00,2013-10-09 08:39:00,
2013-10-09 04:44:00,49.5,44.6,30.25,NNW,333,3.0,5.0,83,0.00,,---,0.00,VWS V14.00,2013-10-09 08:44:00,
2013-10-09 04:49:00,48.6,43.4,30.25,North,349,4.0,4.0,82,0.00,,---,0.00,VWS V14.00,2013-10-09 08:49:00,
2013-10-09 04:54:00,48.6,43.4,30.25,North,349,4.0,4.0,82,0.00,,---,0.00,VWS V14.00,2013-10-09 08:54:00,
2013-10-09 04:59:00,48.6,43.4,30.25,North,349,4.0,4.0,82,0.00,,---,0.00,VWS V14.00,2013-10-09 08:59:00,
2013-10-09 05:04:00,48.6,43.4,30.25,North,349,4.0,4.0,82,0.00,,---,0.00,VWS V14.00,2013-10-09 09:04:00,
2013-10-09 05:09:00,48.6,43.4,30.25,North,349,4.0,4.0,82,0.00,,---,0.00,VWS V14.00,2013-10-09 09:09:00,
2013-10-09 05:14:00,48.6,43.4,30.25,North,349,4.0,4.0,82,0.00,,---,0.00,VWS V14.00,2013-10-09 09:14:00,
2013-10-09 05:20:00,48.6,43.4,30.25,North,349,4.0,4.0,82,0.00,,---,0.00,VWS V14.00,2013-10-09 09:20:00,
2013-10-09 05:25:00,48.6,43.4,30.25,North,349,4.0,4.0,82,0.00,,---,0.00,VWS V14.00,2013-10-09 09:25:00,
2013-10-09 05:30:00,48.6,43.4,30.26,North,349,4.0,4.0,82,0.00,,---,0.00,VWS V14.00,2013-10-09 09:30:00,
2013-10-09 05:35:00,48.6,43.4,30.26,North,349,4.0,4.0,82,0.00,,---,0.00,VWS V14.00,2013-10-09 09:35:00,
2013-10-09 05:40:00,48.6,43.4,30.26,North,349,4.0,4.0,82,0.00,,---,0.00,VWS V14.00,2013-10-09 09:40:00,
2013-10-09 05:45:00,48.6,43.4,30.26,North,349,4.0,4.0,82,0.00,,---,0.00,VWS V14.00,2013-10-09 09:45:00,
2013-10-09 05:50:00,48.6,43.4,30.26,North,349,4.0,4.0,82,0.00,,---,0.00,VWS V14.00,2013-10-09 09:50:00,
2013-10-09 05:55:00,48.6,43.4,30.26,North,349,4.0,4.0,82,0.00,,---,0.00,VWS V14.00,2013-10-09 09:55:00,
2013-10-09 06:00:00,48.6,43.4,30.26,North,349,4.0,4.0,82,0.00,,---,0.00,VWS V14.00,2013-10-09 10:00:00,
2013-10-09 06:05:00,48.6,43.4,30.26,North,349,4.0,4.0,82,0.00,,---,0.00,VWS V14.00,2013-10-09 10:05:00,
2013-10-09 06:10:00,48.6,43.4,30.26,North,349,4.0,4.0,82,0.00,,---,0.00,VWS V14.00,2013-10-09 10:10:00,
2013-10-09 06:15:00,48.6,43.4,30.26,North,349,4.0,4.0,82,0.00,,---,0.00,VWS V14.00,2013-10-09 10:15:00,
2013-10-09 06:20:00,48.6,43.4,30.26,North,349,4.0,4.0,82,0.00,,---,0.00,VWS V14.00,2013-10-09 10:20:00,
2013-10-09 06:25:00,48.6,43.4,30.27,North,349,4.0,4.0,82,0.00,,---,0.00,VWS V14.00,2013-10-09 10:25:00,
2013-10-09 06:31:00,48.6,43.4,30.27,North,349,4.0,4.0,82,0.00,,---,0.00,VWS V14.00,2013-10-09 10:31:00,
2013-10-09 06:36:00,48.6,43.4,30.27,North,349,4.0,4.0,82,0.00,,---,0.00,VWS V14.00,2013-10-09 10:36:00,
2013-10-09 06:41:00,48.6,43.4,30.27,North,349,4.0,4.0,82,0.00,,---,0.00,VWS V14.00,2013-10-09 10:41:00,
2013-10-09 06:46:00,48.6,43.4,30.26,North,349,4.0,4.0,82,0.00,,---,0.00,VWS V14.00,2013-10-09 10:46:00,
2013-10-09 06:51:00,48.6,43.4,30.27,North,349,4.0,4.0,82,0.00,,---,0.00,VWS V14.00,2013-10-09 10:51:00,
2013-10-09 06:56:00,48.6,43.4,30.27,North,349,4.0,4.0,82,0.00,,---,0.00,VWS V14.00,2013-10-09 10:56:00,
2013-10-09 07:01:00,48.6,43.4,30.27,North,349,4.0,4.0,82,0.00,,---,0.00,VWS V14.00,2013-10-09 11:01:00,
2013-10-09 07:06:00,48.6,43.4,30.27,North,349,4.0,4.0,82,0.00,,---,0.00,VWS V14.00,2013-10-09 11:06:00,
2013-10-09 07:11:00,48.6,43.4,30.27,North,349,4.0,4.0,82,0.00,,---,0.00,VWS V14.00,2013-10-09 11:11:00,
2013-10-09 07:16:00,48.6,43.4,30.27,North,349,4.0,4.0,82,0.00,,---,0.00,VWS V14.00,2013-10-09 11:16:00,
2013-10-09 07:21:00,48.6,43.4,30.27,North,349,4.0,4.0,82,0.00,,---,0.00,VWS V14.00,2013-10-09 11:21:00,
2013-10-09 07:27:00,48.6,43.4,30.28,North,349,4.0,4.0,82,0.00,,---,0.00,VWS V14.00,2013-10-09 11:27:00,
2013-10-09 07:32:00,48.6,43.4,30.28,North,349,4.0,4.0,82,0.00,,---,0.00,VWS V14.00,2013-10-09 11:32:00,
2013-10-09 07:37:00,48.6,43.4,30.28,North,349,4.0,4.0,82,0.00,,---,0.00,VWS V14.00,2013-10-09 11:37:00,
2013-10-09 07:42:00,48.6,43.4,30.29,North,349,4.0,4.0,82,0.00,,---,0.00,VWS V14.00,2013-10-09 11:42:00,
2013-10-09 07:47:00,50.6,43.7,30.29,NNE,16,3.0,10.0,77,0.00,,---,0.00,VWS V14.00,2013-10-09 11:47:00,
2013-10-09 07:52:00,51.0,43.7,30.29,NE,51,1.0,8.0,76,0.00,,---,0.00,VWS V14.00,2013-10-09 11:52:00,
2013-10-09 07:57:00,51.1,43.8,30.30,NNE,20,3.0,7.0,76,0.00,,---,0.00,VWS V14.00,2013-10-09 11:57:00,
2013-10-09 08:02:00,51.3,44.3,30.30,NE,39,5.0,6.0,77,0.00,,---,0.00,VWS V14.00,2013-10-09 12:02:00,
2013-10-09 08:05:00,51.3,44.3,30.30,NNW,342,2.0,7.0,77,0.00,,---,0.00,VWS V14.00,2013-10-09 12:05:00,
2013-10-09 08:10:00,51.4,44.4,30.29,North,351,6.0,7.0,77,0.00,,---,0.00,VWS V14.00,2013-10-09 12:10:00,
2013-10-09 08:15:00,51.5,44.5,30.30,NW,311,3.0,9.0,77,0.00,,---,0.00,VWS V14.00,2013-10-09 12:15:00,
2013-10-09 08:20:00,51.7,44.7,30.30,NE,37,10.0,10.0,77,0.00,,---,0.00,VWS V14.00,2013-10-09 12:20:00,
2013-10-09 08:25:00,51.9,44.9,30.31,ENE,58,2.0,7.0,77,0.00,,---,0.00,VWS V14.00,2013-10-09 12:25:00,
2013-10-09 08:31:00,52.1,45.1,30.31,NE,41,1.0,7.0,77,0.00,,---,0.00,VWS V14.00,2013-10-09 12:31:00,
2013-10-09 08:36:00,52.3,45.3,30.32,ENE,65,3.0,7.0,77,0.00,,---,0.00,VWS V14.00,2013-10-09 12:36:00,
2013-10-09 08:41:00,52.4,45.4,30.32,North,8,2.0,7.0,77,0.00,,---,0.00,VWS V14.00,2013-10-09 12:41:00,
2013-10-09 08:46:00,52.5,45.2,30.32,NNW,348,3.0,6.0,76,0.00,,---,0.00,VWS V14.00,2013-10-09 12:46:00,
2013-10-09 08:51:00,52.6,45.3,30.32,NNE,30,2.0,6.0,76,0.00,,---,0.00,VWS V14.00,2013-10-09 12:51:00,
2013-10-09 08:56:00,52.8,45.5,30.32,NE,39,3.0,10.0,76,0.00,,---,0.00,VWS V14.00,2013-10-09 12:56:00,
2013-10-09 09:01:00,52.9,45.5,30.32,NE,41,5.0,8.0,76,0.00,,---,0.00,VWS V14.00,2013-10-09 13:01:00,
2013-10-09 09:06:00,53.0,45.7,30.32,East,84,2.0,8.0,76,0.00,,---,0.00,VWS V14.00,2013-10-09 13:06:00,
2013-10-09 09:11:00,53.2,45.5,30.31,SE,142,2.0,10.0,75,0.00,,---,0.00,VWS V14.00,2013-10-09 13:11:00,
2013-10-09 09:16:00,53.3,45.9,30.32,North,8,4.0,8.0,76,0.00,,---,0.00,VWS V14.00,2013-10-09 13:16:00,
2013-10-09 09:21:00,53.5,45.8,30.31,NNE,20,8.0,10.0,75,0.00,,---,0.00,VWS V14.00,2013-10-09 13:21:00,
2013-10-09 09:26:00,53.6,45.5,30.31,ENE,73,4.0,10.0,74,0.00,,---,0.00,VWS V14.00,2013-10-09 13:26:00,
2013-10-09 09:32:00,53.7,45.6,30.32,NNE,18,5.0,10.0,74,0.00,,---,0.00,VWS V14.00,2013-10-09 13:32:00,
2013-10-09 09:37:00,53.9,45.5,30.32,NNE,20,6.0,9.0,73,0.00,,---,0.00,VWS V14.00,2013-10-09 13:37:00,
2013-10-09 09:42:00,54.0,45.5,30.32,NE,42,8.0,11.0,73,0.00,,---,0.00,VWS V14.00,2013-10-09 13:42:00,
2013-10-09 09:47:00,54.2,45.8,30.31,NNE,22,4.0,8.0,73,0.00,,---,0.00,VWS V14.00,2013-10-09 13:47:00,
2013-10-09 09:52:00,54.2,45.4,30.31,NE,43,5.0,13.0,72,0.00,,---,0.00,VWS V14.00,2013-10-09 13:52:00,
2013-10-09 09:57:00,54.4,45.6,30.31,NNE,32,4.0,11.0,72,0.00,,---,0.00,VWS V14.00,2013-10-09 13:57:00,
2013-10-09 10:02:00,54.5,45.7,30.31,NNE,28,7.0,10.0,72,0.00,,---,0.00,VWS V14.00,2013-10-09 14:02:00,
2013-10-09 10:07:00,54.7,45.5,30.31,NNE,32,4.0,11.0,71,0.00,,---,0.00,VWS V14.00,2013-10-09 14:07:00,
2013-10-09 10:12:00,54.9,45.7,30.31,East,83,10.0,12.0,71,0.00,,---,0.00,VWS V14.00,2013-10-09 14:12:00,
2013-10-09 10:17:00,55.1,45.9,30.31,NW,317,2.0,8.0,71,0.00,,---,0.00,VWS V14.00,2013-10-09 14:17:00,
2013-10-09 10:22:00,55.4,46.2,30.31,NW,326,7.0,9.0,71,0.00,,---,0.00,VWS V14.00,2013-10-09 14:22:00,
2013-10-09 10:27:00,55.7,46.1,30.31,ENE,58,4.0,8.0,70,0.00,,---,0.00,VWS V14.00,2013-10-09 14:27:00,
2013-10-09 10:32:00,55.7,46.1,30.31,NNW,348,8.0,12.0,70,0.00,,---,0.00,VWS V14.00,2013-10-09 14:32:00,
2013-10-09 10:38:00,55.9,46.7,30.31,North,354,5.0,11.0,71,0.00,,---,0.00,VWS V14.00,2013-10-09 14:38:00,
2013-10-09 10:43:00,56.0,46.0,30.31,NE,46,4.0,10.0,69,0.00,,---,0.00,VWS V14.00,2013-10-09 14:43:00,
2013-10-09 10:48:00,56.0,46.0,30.31,ENE,63,7.0,11.0,69,0.00,,---,0.00,VWS V14.00,2013-10-09 14:48:00,
2013-10-09 10:53:00,56.0,46.0,30.30,NE,49,6.0,12.0,69,0.00,,---,0.00,VWS V14.00,2013-10-09 14:53:00,
2013-10-09 10:58:00,56.2,46.2,30.30,NNE,29,4.0,10.0,69,0.00,,---,0.00,VWS V14.00,2013-10-09 14:58:00,
2013-10-09 11:03:00,56.7,46.3,30.31,NE,43,10.0,10.0,68,0.00,,---,0.00,VWS V14.00,2013-10-09 15:03:00,
2013-10-09 11:08:00,56.8,46.8,30.31,NE,34,5.0,10.0,69,0.00,,---,0.00,VWS V14.00,2013-10-09 15:08:00,
2013-10-09 11:13:00,57.1,46.7,30.30,ENE,70,6.0,11.0,68,0.00,,---,0.00,VWS V14.00,2013-10-09 15:13:00,
2013-10-09 11:18:00,57.2,46.8,30.30,NNE,30,13.0,13.0,68,0.00,,---,0.00,VWS V14.00,2013-10-09 15:18:00,
2013-10-09 11:23:00,57.3,46.8,30.30,ENE,74,5.0,13.0,68,0.00,,---,0.00,VWS V14.00,2013-10-09 15:23:00,
2013-10-09 11:28:00,57.3,46.5,30.30,NE,47,4.0,11.0,67,0.00,,---,0.00,VWS V14.00,2013-10-09 15:28:00,
2013-10-09 11:33:00,57.6,46.7,30.30,North,10,5.0,10.0,67,0.00,,---,0.00,VWS V14.00,2013-10-09 15:33:00,
2013-10-09 11:38:00,57.7,46.8,30.30,ENE,73,4.0,11.0,67,0.00,,---,0.00,VWS V14.00,2013-10-09 15:38:00,
2013-10-09 11:43:00,57.9,47.0,30.30,North,8,5.0,10.0,67,0.00,,---,0.00,VWS V14.00,2013-10-09 15:43:00,
2013-10-09 11:48:00,58.3,46.6,30.30,East,88,8.0,13.0,65,0.00,,---,0.00,VWS V14.00,2013-10-09 15:48:00,
2013-10-09 11:53:00,58.4,47.1,30.30,East,98,6.0,6.0,66,0.00,,---,0.00,VWS V14.00,2013-10-09 15:53:00,
2013-10-09 11:58:00,58.4,46.7,30.30,SE,130,7.0,9.0,65,0.00,,---,0.00,VWS V14.00,2013-10-09 15:58:00,
2013-10-09 12:03:00,58.5,46.4,30.30,ENE,66,10.0,10.0,64,0.00,,---,0.00,VWS V14.00,2013-10-09 16:03:00,
2013-10-09 12:08:00,58.5,46.4,30.30,ENE,70,7.0,10.0,64,0.00,,---,0.00,VWS V14.00,2013-10-09 16:08:00,
2013-10-09 12:13:00,58.4,46.3,30.30,East,94,5.0,9.0,64,0.00,,---,0.00,VWS V14.00,2013-10-09 16:13:00,
2013-10-09 12:18:00,58.7,47.0,30.30,East,89,7.0,10.0,65,0.00,,---,0.00,VWS V14.00,2013-10-09 16:18:00,
2013-10-09 12:23:00,59.0,46.4,30.30,ENE,65,10.0,12.0,63,0.00,,---,0.00,VWS V14.00,2013-10-09 16:23:00,
2013-10-09 12:28:00,59.0,46.8,30.30,NNE,32,3.0,7.0,64,0.00,,---,0.00,VWS V14.00,2013-10-09 16:28:00,
2013-10-09 12:34:00,59.2,47.0,30.30,East,85,6.0,10.0,64,0.00,,---,0.00,VWS V14.00,2013-10-09 16:34:00,
2013-10-09 12:39:00,59.1,47.0,30.29,NNE,19,6.0,13.0,64,0.00,,---,0.00,VWS V14.00,2013-10-09 16:39:00,
2013-10-09 12:44:00,59.4,47.2,30.29,ESE,121,4.0,7.0,64,0.00,,---,0.00,VWS V14.00,2013-10-09 16:44:00,
2013-10-09 12:49:00,59.9,47.3,30.29,East,101,4.0,5.0,63,0.00,,---,0.00,VWS V14.00,2013-10-09 16:49:00,
2013-10-09 12:54:00,59.9,46.9,30.29,East,84,3.0,8.0,62,0.00,,---,0.00,VWS V14.00,2013-10-09 16:54:00,
2013-10-09 12:59:00,59.9,46.9,30.28,NE,55,9.0,9.0,62,0.00,,---,0.00,VWS V14.00,2013-10-09 16:59:00,
2013-10-09 13:04:00,60.1,47.0,30.28,ENE,74,9.0,10.0,62,0.00,,---,0.00,VWS V14.00,2013-10-09 17:04:00,
2013-10-09 13:09:00,60.3,47.2,30.28,ENE,60,2.0,7.0,62,0.00,,---,0.00,VWS V14.00,2013-10-09 17:09:00,
2013-10-09 13:14:00,60.6,46.7,30.28,ESE,113,1.0,10.0,60,0.00,,---,0.00,VWS V14.00,2013-10-09 17:14:00,
2013-10-09 13:19:00,60.6,46.2,30.28,East,86,4.0,8.0,59,0.00,,---,0.00,VWS V14.00,2013-10-09 17:19:00,
2013-10-09 13:24:00,60.7,46.8,30.28,East,84,6.0,8.0,60,0.00,,---,0.00,VWS V14.00,2013-10-09 17:24:00,
2013-10-09 13:29:00,60.6,46.7,30.28,NNE,19,2.0,8.0,60,0.00,,---,0.00,VWS V14.00,2013-10-09 17:29:00,
2013-10-09 13:34:00,60.8,46.8,30.27,NE,43,0.0,8.0,60,0.00,,---,0.00,VWS V14.00,2013-10-09 17:34:00,
2013-10-09 13:40:00,61.2,46.3,30.27,ENE,74,4.0,8.0,58,0.00,,---,0.00,VWS V14.00,2013-10-09 17:40:00,
2013-10-09 13:45:00,61.4,46.5,30.27,East,79,6.0,8.0,58,0.00,,---,0.00,VWS V14.00,2013-10-09 17:45:00,
2013-10-09 13:50:00,61.4,46.0,30.27,East,94,7.0,9.0,57,0.00,,---,0.00,VWS V14.00,2013-10-09 17:50:00,
2013-10-09 13:55:00,61.4,46.5,30.27,NE,37,3.0,6.0,58,0.00,,---,0.00,VWS V14.00,2013-10-09 17:55:00,
2013-10-09 14:00:00,61.5,46.6,30.27,ENE,61,4.0,7.0,58,0.00,,---,0.00,VWS V14.00,2013-10-09 18:00:00,
2013-10-09 14:05:00,62.0,47.1,30.27,NE,51,3.0,8.0,58,0.00,,---,0.00,VWS V14.00,2013-10-09 18:05:00,
2013-10-09 14:10:00,62.5,46.1,30.27,ENE,70,4.0,11.0,55,0.00,,---,0.00,VWS V14.00,2013-10-09 18:10:00,
2013-10-09 14:15:00,63.0,46.6,30.27,ENE,58,5.0,10.0,55,0.00,,---,0.00,VWS V14.00,2013-10-09 18:15:00,
2013-10-09 14:20:00,62.6,46.2,30.27,East,98,4.0,7.0,55,0.00,,---,0.00,VWS V14.00,2013-10-09 18:20:00,
2013-10-09 14:25:00,62.4,46.5,30.27,East,98,7.0,7.0,56,0.00,,---,0.00,VWS V14.00,2013-10-09 18:25:00,
2013-10-09 14:30:00,62.1,46.2,30.27,East,87,4.0,8.0,56,0.00,,---,0.00,VWS V14.00,2013-10-09 18:30:00,
2013-10-09 14:35:00,61.9,46.5,30.27,East,84,8.0,14.0,57,0.00,,---,0.00,VWS V14.00,2013-10-09 18:35:00,
2013-10-09 14:41:00,61.7,46.3,30.26,East,91,3.0,9.0,57,0.00,,---,0.00,VWS V14.00,2013-10-09 18:41:00,
2013-10-09 14:46:00,61.7,46.8,30.26,East,101,9.0,13.0,58,0.00,,---,0.00,VWS V14.00,2013-10-09 18:46:00,
2013-10-09 14:51:00,61.8,46.9,30.26,East,82,5.0,11.0,58,0.00,,---,0.00,VWS V14.00,2013-10-09 18:51:00,
2013-10-09 14:56:00,61.8,46.4,30.26,East,93,7.0,12.0,57,0.00,,---,0.00,VWS V14.00,2013-10-09 18:56:00,
2013-10-09 15:01:00,61.9,46.5,30.26,ESE,121,6.0,10.0,57,0.00,,---,0.00,VWS V14.00,2013-10-09 19:01:00,
2013-10-09 15:06:00,62.0,47.1,30.26,East,101,9.0,9.0,58,0.00,,---,0.00,VWS V14.00,2013-10-09 19:06:00,
2013-10-09 15:11:00,61.5,46.6,30.26,SE,143,7.0,12.0,58,0.00,,---,0.00,VWS V14.00,2013-10-09 19:11:00,
2013-10-09 15:16:00,61.6,46.7,30.26,SE,139,5.0,12.0,58,0.00,,---,0.00,VWS V14.00,2013-10-09 19:16:00,
2013-10-09 15:21:00,61.7,47.2,30.26,SE,135,6.0,10.0,59,0.00,,---,0.00,VWS V14.00,2013-10-09 19:21:00,
2013-10-09 15:26:00,61.8,46.9,30.26,ESE,113,2.0,8.0,58,0.00,,---,0.00,VWS V14.00,2013-10-09 19:26:00,
2013-10-09 15:31:00,61.9,47.0,30.26,SSE,157,4.0,8.0,58,0.00,,---,0.00,VWS V14.00,2013-10-09 19:31:00,
2013-10-09 15:36:00,61.9,47.0,30.26,ESE,117,2.0,9.0,58,0.00,,---,0.00,VWS V14.00,2013-10-09 19:36:00,
2013-10-09 15:42:00,61.9,47.0,30.26,ENE,77,5.0,8.0,58,0.00,,---,0.00,VWS V14.00,2013-10-09 19:42:00,
2013-10-09 15:47:00,62.0,47.5,30.26,SE,138,3.0,4.0,59,0.00,,---,0.00,VWS V14.00,2013-10-09 19:47:00,
2013-10-09 15:52:00,62.2,47.7,30.26,NE,53,3.0,6.0,59,0.00,,---,0.00,VWS V14.00,2013-10-09 19:52:00,
2013-10-09 15:57:00,62.2,47.3,30.26,South,173,1.0,6.0,58,0.00,,---,0.00,VWS V14.00,2013-10-09 19:57:00,
2013-10-09 16:02:00,62.1,46.7,30.26,NNE,32,7.0,9.0,57,0.00,,---,0.00,VWS V14.00,2013-10-09 20:02:00,
2013-10-09 16:07:00,62.0,46.6,30.26,NE,35,3.0,7.0,57,0.00,,---,0.00,VWS V14.00,2013-10-09 20:07:00,
2013-10-09 16:12:00,61.8,46.0,30.26,ENE,63,3.0,6.0,56,0.00,,---,0.00,VWS V14.00,2013-10-09 20:12:00,
2013-10-09 16:18:00,61.8,46.4,30.25,East,90,2.0,2.0,57,0.00,,---,0.00,VWS V14.00,2013-10-09 20:18:00,
2013-10-09 16:23:00,61.9,46.5,30.25,NE,43,1.0,3.0,57,0.00,,---,0.00,VWS V14.00,2013-10-09 20:23:00,
2013-10-09 16:28:00,61.8,46.4,30.25,NE,44,1.0,3.0,57,0.00,,---,0.00,VWS V14.00,2013-10-09 20:28:00,
2013-10-09 16:33:00,61.7,46.3,30.25,East,84,3.0,4.0,57,0.00,,---,0.00,VWS V14.00,2013-10-09 20:33:00,
2013-10-09 16:38:00,61.6,46.7,30.25,ESE,111,1.0,2.0,58,0.00,,---,0.00,VWS V14.00,2013-10-09 20:38:00,
2013-10-09 16:43:00,61.4,46.5,30.25,NNE,17,1.0,2.0,58,0.00,,---,0.00,VWS V14.00,2013-10-09 20:43:00,
2013-10-09 16:48:00,61.2,46.3,30.25,East,87,4.0,4.0,58,0.00,,---,0.00,VWS V14.00,2013-10-09 20:48:00,
2013-10-09 16:54:00,61.1,46.7,30.24,ENE,68,3.0,4.0,59,0.00,,---,0.00,VWS V14.00,2013-10-09 20:54:00,
2013-10-09 16:59:00,61.0,46.6,30.24,ENE,71,2.0,4.0,59,0.00,,---,0.00,VWS V14.00,2013-10-09 20:59:00,
2013-10-09 17:04:00,61.0,47.0,30.24,SE,132,1.0,1.0,60,0.00,,---,0.00,VWS V14.00,2013-10-09 21:04:00,
2013-10-09 17:09:00,60.9,46.5,30.24,ESE,107,2.0,3.0,59,0.00,,---,0.00,VWS V14.00,2013-10-09 21:09:00,
2013-10-09 17:14:00,60.8,46.4,30.24,East,79,1.0,6.0,59,0.00,,---,0.00,VWS V14.00,2013-10-09 21:14:00,
2013-10-09 17:19:00,60.7,46.8,30.24,NE,47,3.0,4.0,60,0.00,,---,0.00,VWS V14.00,2013-10-09 21:19:00,
2013-10-09 17:24:00,60.6,47.1,30.24,ENE,60,4.0,6.0,61,0.00,,---,0.00,VWS V14.00,2013-10-09 21:24:00,
2013-10-09 17:29:00,60.5,47.0,30.24,NE,43,3.0,4.0,61,0.00,,---,0.00,VWS V14.00,2013-10-09 21:29:00,
2013-10-09 17:34:00,60.4,46.9,30.24,NE,39,3.0,4.0,61,0.00,,---,0.00,VWS V14.00,2013-10-09 21:34:00,
2013-10-09 17:40:00,60.3,47.2,30.24,NE,50,3.0,3.0,62,0.00,,---,0.00,VWS V14.00,2013-10-09 21:40:00,
2013-10-09 17:45:00,60.1,47.0,30.23,East,98,1.0,2.0,62,0.00,,---,0.00,VWS V14.00,2013-10-09 21:45:00,
2013-10-09 17:50:00,60.0,47.4,30.23,NE,48,3.0,4.0,63,0.00,,---,0.00,VWS V14.00,2013-10-09 21:50:00,
2013-10-09 17:55:00,59.9,47.3,30.23,East,89,0.0,3.0,63,0.00,,---,0.00,VWS V14.00,2013-10-09 21:55:00,
2013-10-09 18:00:00,59.7,47.5,30.23,ENE,58,2.0,3.0,64,0.00,,---,0.00,VWS V14.00,2013-10-09 22:00:00,
2013-10-09 18:05:00,59.6,47.4,30.23,East,86,0.0,1.0,64,0.00,,---,0.00,VWS V14.00,2013-10-09 22:05:00,
2013-10-09 18:10:00,59.4,47.7,30.23,East,86,0.0,0.0,65,0.00,,---,0.00,VWS V14.00,2013-10-09 22:10:00,
2013-10-09 18:15:00,59.3,47.5,30.23,East,85,0.0,0.0,65,0.00,,---,0.00,VWS V14.00,2013-10-09 22:15:00,
2013-10-09 18:20:00,59.1,47.8,30.23,East,79,0.0,0.0,66,0.00,,---,0.00,VWS V14.00,2013-10-09 22:20:00,
2013-10-09 18:25:00,58.9,47.6,30.23,East,79,0.0,0.0,66,0.00,,---,0.00,VWS V14.00,2013-10-09 22:25:00,
2013-10-09 18:31:00,58.8,47.5,30.23,East,79,0.0,0.0,66,0.00,,---,0.00,VWS V14.00,2013-10-09 22:31:00,
2013-10-09 18:36:00,58.6,47.7,30.24,East,79,0.0,0.0,67,0.00,,---,0.00,VWS V14.00,2013-10-09 22:36:00,
2013-10-09 18:41:00,58.4,47.9,30.23,East,79,0.0,0.0,68,0.00,,---,0.00,VWS V14.00,2013-10-09 22:41:00,
2013-10-09 18:46:00,58.2,47.7,30.23,NE,37,0.0,0.0,68,0.00,,---,0.00,VWS V14.00,2013-10-09 22:46:00,
2013-10-09 18:51:00,58.2,47.7,30.23,NE,37,0.0,0.0,68,0.00,,---,0.00,VWS V14.00,2013-10-09 22:51:00,
2013-10-09 18:56:00,58.1,48.0,30.24,NE,37,0.0,0.0,69,0.00,,---,0.00,VWS V14.00,2013-10-09 22:56:00,
2013-10-09 19:01:00,58.0,47.9,30.23,NE,37,0.0,0.0,69,0.00,,---,0.00,VWS V14.00,2013-10-09 23:01:00,
2013-10-09 19:06:00,57.9,48.2,30.23,NE,37,0.0,0.0,70,0.00,,---,0.00,VWS V14.00,2013-10-09 23:06:00,
2013-10-09 19:11:00,57.7,48.4,30.23,NE,37,0.0,0.0,71,0.00,,---,0.00,VWS V14.00,2013-10-09 23:11:00,
2013-10-09 19:16:00,57.6,48.3,30.23,NE,37,0.0,0.0,71,0.00,,---,0.00,VWS V14.00,2013-10-09 23:16:00,
2013-10-09 19:22:00,57.4,48.5,30.23,NE,37,0.0,0.0,72,0.00,,---,0.00,VWS V14.00,2013-10-09 23:22:00,
2013-10-09 19:27:00,57.3,48.4,30.22,NE,37,0.0,0.0,72,0.00,,---,0.00,VWS V14.00,2013-10-09 23:27:00,
2013-10-09 19:32:00,57.2,48.3,30.22,NNE,27,0.0,0.0,72,0.00,,---,0.00,VWS V14.00,2013-10-09 23:32:00,
2013-10-09 19:37:00,57.2,48.6,30.22,North,11,1.0,3.0,73,0.00,,---,0.00,VWS V14.00,2013-10-09 23:37:00,
2013-10-09 19:42:00,57.1,48.9,30.22,NNE,22,1.0,3.0,74,0.00,,---,0.00,VWS V14.00,2013-10-09 23:42:00,
2013-10-09 19:47:00,56.9,48.7,30.22,North,8,2.0,3.0,74,0.00,,---,0.00,VWS V14.00,2013-10-09 23:47:00,
2013-10-09 19:52:00,56.7,48.9,30.22,NNW,348,2.0,4.0,75,0.00,,---,0.00,VWS V14.00,2013-10-09 23:52:00,
2013-10-09 19:57:00,56.5,48.7,30.21,North,6,3.0,6.0,75,0.00,,---,0.00,VWS V14.00,2013-10-09 23:57:00,
2013-10-09 20:03:00,56.3,48.8,30.21,North,6,1.0,5.0,76,0.00,,---,0.00,VWS V14.00,2013-10-10 00:03:00,
2013-10-09 20:08:00,56.1,48.7,30.21,NNE,13,2.0,5.0,76,0.00,,---,0.00,VWS V14.00,2013-10-10 00:08:00,
2013-10-09 20:13:00,56.0,48.9,30.21,North,11,3.0,5.0,77,0.00,,---,0.00,VWS V14.00,2013-10-10 00:13:00,
2013-10-09 20:18:00,55.9,48.8,30.21,NNE,27,3.0,5.0,77,0.00,,---,0.00,VWS V14.00,2013-10-10 00:18:00,
2013-10-09 20:23:00,55.8,49.0,30.21,NNW,331,3.0,5.0,78,0.00,,---,0.00,VWS V14.00,2013-10-10 00:23:00,
2013-10-09 20:28:00,55.7,49.0,30.22,NNE,26,3.0,5.0,78,0.00,,---,0.00,VWS V14.00,2013-10-10 00:28:00,
2013-10-09 20:33:00,55.5,49.1,30.22,NNE,12,2.0,5.0,79,0.00,,---,0.00,VWS V14.00,2013-10-10 00:33:00,
2013-10-09 20:38:00,55.4,49.0,30.22,North,8,2.0,4.0,79,0.00,,---,0.00,VWS V14.00,2013-10-10 00:38:00,
2013-10-09 20:43:00,55.3,48.9,30.22,NE,43,4.0,5.0,79,0.00,,---,0.00,VWS V14.00,2013-10-10 00:43:00,
2013-10-09 20:48:00,55.3,48.9,30.22,NE,35,3.0,5.0,79,0.00,,---,0.00,VWS V14.00,2013-10-10 00:48:00,
2013-10-09 20:53:00,55.2,49.2,30.22,North,358,4.0,5.0,80,0.00,,---,0.00,VWS V14.00,2013-10-10 00:53:00,
2013-10-09 20:58:00,55.2,49.2,30.22,NE,41,0.0,4.0,80,0.00,,---,0.00,VWS V14.00,2013-10-10 00:58:00,
2013-10-09 21:03:00,55.0,49.0,30.22,East,80,0.0,3.0,80,0.00,,---,0.00,VWS V14.00,2013-10-10 01:03:00,
2013-10-09 21:08:00,54.9,49.2,30.22,East,101,0.0,0.0,81,0.00,,---,0.00,VWS V14.00,2013-10-10 01:08:00,
2013-10-09 21:13:00,54.8,49.1,30.22,ESE,111,0.0,0.0,81,0.00,,---,0.00,VWS V14.00,2013-10-10 01:13:00,
2013-10-09 21:18:00,54.6,49.2,30.22,NNE,27,0.0,2.0,82,0.00,,---,0.00,VWS V14.00,2013-10-10 01:18:00,
2013-10-09 21:23:00,54.6,49.2,30.21,NNE,26,0.0,2.0,82,0.00,,---,0.00,VWS V14.00,2013-10-10 01:23:00,
2013-10-09 21:28:00,54.5,49.1,30.21,NNE,19,1.0,3.0,82,0.00,,---,0.00,VWS V14.00,2013-10-10 01:28:00,
2013-10-09 21:33:00,54.6,49.2,30.21,NNE,20,1.0,2.0,82,0.00,,---,0.00,VWS V14.00,2013-10-10 01:33:00,
2013-10-09 21:38:00,54.6,49.2,30.21,NNE,16,1.0,2.0,82,0.00,,---,0.00,VWS V14.00,2013-10-10 01:38:00,
2013-10-09 21:43:00,54.6,49.2,30.21,NNW,336,3.0,3.0,82,0.00,,---,0.00,VWS V14.00,2013-10-10 01:43:00,
2013-10-09 21:48:00,54.5,49.5,30.21,NNE,27,2.0,4.0,83,0.00,,---,0.00,VWS V14.00,2013-10-10 01:48:00,
2013-10-09 21:53:00,54.4,49.3,30.21,North,359,2.0,3.0,83,0.00,,---,0.00,VWS V14.00,2013-10-10 01:53:00,
2013-10-09 21:58:00,54.3,49.3,30.22,North,11,2.0,4.0,83,0.00,,---,0.00,VWS V14.00,2013-10-10 01:58:00,
2013-10-09 22:03:00,54.2,49.2,30.21,NNE,15,2.0,3.0,83,0.00,,---,0.00,VWS V14.00,2013-10-10 02:03:00,
2013-10-09 22:08:00,54.2,49.5,30.22,NNE,13,1.0,4.0,84,0.00,,---,0.00,VWS V14.00,2013-10-10 02:08:00,
2013-10-09 22:13:00,54.2,49.5,30.22,NNE,24,4.0,4.0,84,0.00,,---,0.00,VWS V14.00,2013-10-10 02:13:00,
2013-10-09 22:18:00,54.1,49.4,30.22,NNE,15,4.0,5.0,84,0.00,,---,0.00,VWS V14.00,2013-10-10 02:18:00,
2013-10-09 22:23:00,54.1,49.4,30.22,NNE,30,2.0,5.0,84,0.00,,---,0.00,VWS V14.00,2013-10-10 02:23:00,
2013-10-09 22:28:00,54.1,49.4,30.22,North,5,4.0,5.0,84,0.00,,---,0.00,VWS V14.00,2013-10-10 02:28:00,
2013-10-09 22:33:00,54.1,49.4,30.22,NNW,329,3.0,4.0,84,0.00,,---,0.00,VWS V14.00,2013-10-10 02:33:00,
2013-10-09 22:38:00,54.1,49.4,30.22,North,360,1.0,3.0,84,0.00,,---,0.00,VWS V14.00,2013-10-10 02:38:00,
2013-10-09 22:43:00,54.0,49.3,30.22,North,360,2.0,3.0,84,0.00,,---,0.00,VWS V14.00,2013-10-10 02:43:00,
2013-10-09 22:48:00,54.0,49.6,30.22,North,353,2.0,2.0,85,0.00,,---,0.00,VWS V14.00,2013-10-10 02:48:00,
2013-10-09 22:53:00,53.9,49.5,30.21,NNE,16,1.0,2.0,85,0.00,,---,0.00,VWS V14.00,2013-10-10 02:53:00,
2013-10-09 22:58:00,53.8,49.4,30.21,North,352,3.0,3.0,85,0.00,,---,0.00,VWS V14.00,2013-10-10 02:58:00,
2013-10-09 23:03:00,53.8,49.4,30.21,NNW,338,0.0,1.0,85,0.00,,---,0.00,VWS V14.00,2013-10-10 03:03:00,
2013-10-09 23:08:00,53.8,49.4,30.21,North,10,3.0,4.0,85,0.00,,---,0.00,VWS V14.00,2013-10-10 03:08:00,
2013-10-09 23:13:00,53.8,49.4,30.21,NNE,25,1.0,2.0,85,0.00,,---,0.00,VWS V14.00,2013-10-10 03:13:00,
2013-10-09 23:18:00,53.7,49.3,30.21,North,6,3.0,3.0,85,0.00,,---,0.00,VWS V14.00,2013-10-10 03:18:00,
2013-10-09 23:24:00,53.7,49.3,30.21,NNE,23,1.0,2.0,85,0.00,,---,0.00,VWS V14.00,2013-10-10 03:24:00,
2013-10-09 23:29:00,53.7,49.3,30.21,North,6,2.0,3.0,85,0.00,,---,0.00,VWS V14.00,2013-10-10 03:29:00,
2013-10-09 23:34:00,53.6,49.2,30.21,NNW,341,1.0,2.0,85,0.00,,---,0.00,VWS V14.00,2013-10-10 03:34:00,
2013-10-09 23:39:00,53.6,49.5,30.21,North,6,2.0,3.0,86,0.00,,---,0.00,VWS V14.00,2013-10-10 03:39:00,
2013-10-09 23:44:00,53.7,49.3,30.21,NE,35,4.0,4.0,85,0.00,,---,0.00,VWS V14.00,2013-10-10 03:44:00,
2013-10-09 23:49:00,53.8,49.4,30.21,NE,34,1.0,5.0,85,0.00,,---,0.00,VWS V14.00,2013-10-10 03:49:00,
2013-10-09 23:54:00,53.9,49.2,30.21,NE,42,0.0,4.0,84,0.00,,---,0.00,VWS V14.00,2013-10-10 03:54:00,
2013-10-09 23:59:00,54.0,49.0,30.21,NNE,32,3.0,5.0,83,0.00,,---,0.00,VWS V14.00,2013-10-10 03:59:00,